Theta_e
292 292 291 291 292 292 292 292 292 292 292 292 292 292 292 292 292 292 292 291 291 291 291 291 291 291 291 291 291 291 291 291 291 291 291 291 291 291 291 291 291 291 291 291 291 291 291 291 290 290 290 290 290 290 291 291 292 292 293 293 294 294 294 295 296 297 299 301 303 304 306 307 309 309 310 310 310 310 310 310 310 311 311 311 311 311
291 291 291 291 292 292 292 291 291 292 291 291 291 291 291 291 291 291 291 291 291 290 290 290 290 290 290 290 290 290 290 290 290 290 290 290 290 290 290 290 290 290 290 290 290 290 290 290 290 290 290 290 290 290 290 290 290 291 291 292 293 293 294 294 294 294 295 295 296 297 298 300 302 304 306 307 308 308 308 308 309 310 310 311 311 311
292 292 292 292 292 292 291 291 291 291 291 291 290 290 290 290 290 290 290 290 290 290 290 290 289 289 289 289 289 289 289 289 289 289 289 289 289 289 289 289 289 290 290 290 290 290 290 290 290 289 289 289 289 289 289 289 290 290 290 291 291 292 292 293 293 293 293 294 294 294 295 296 297 299 301 303 304 305 306 307 308 309 310 310 310 310
292 292 292 292 292 291 291 291 291 290 290 290 290 290 290 290 289 289 289 289 289 289 289 289 289 289 289 289 289 289 289 289 289 289 289 289 289 289 289 289 289 289 289 289 289 289 289 289 289 289 289 289 289 289 289 289 289 289 289 290 290 290 291 291 291 292 292 293 294 295 295 296 297 298 298 299 300 301 303 304 305 307 307 308 308 308
292 292 292 292 291 291 291 290 290 290 290 290 289 289 289 289 289 288 288 288 288 288 288 288 288 288 288 288 288 289 289 289 289 289 289 289 289 289 289 289 289 289 289 289 289 289 289 289 289 289 289 289 289 289 289 289 289 289 289 289 289 289 289 290 290 291 291 292 293 294 295 296 297 298 298 298 298 299 299 300 301 302 303 303 304 304
292 291 291 291 291 290 290 290 290 290 289 289 289 289 289 288 288 288 288 288 288 288 288 288 288 288 288 288 288 288 288 288 288 288 288 288 288 288 288 288 288 288 288 288 288 288 288 288 288 288 289 289 289 289 289 289 289 288 288 288 288 288 289 289 289 289 289 290 291 292 293 295 296 297 298 297 297 297 297 297 297 297 297 297 298 299
291 291 290 290 290 290 290 290 289 289 289 289 289 288 288 288 288 288 288 288 288 288 288 288 288 288 288 288 288 288 288 288 288 288 288 288 288 288 288 288 288 288 288 288 288 288 288 288 288 288 288 288 288 288 288 288 288 288 288 288 288 288 288 288 288 288 289 289 290 290 292 293 294 296 296 297 297 296 296 295 294 294 294 294 294 295
290 290 290 290 290 289 289 289 289 289 289 289 288 288 288 288 288 288 288 288 288 288 288 287 287 287 288 287 287 287 287 287 287 287 287 287 287 287 287 287 287 287 287 287 287 287 287 287 287 287 287 287 288 288 288 288 288 288 288 288 288 288 288 288 288 288 288 288 288 289 290 291 292 294 295 295 296 296 296 295 294 293 293 293 293 293
289 289 289 289 289 289 289 289 289 289 289 288 288 288 288 288 288 288 288 288 288 288 288 288 287 287 287 287 287 287 287 287 287 287 287 287 287 287 287 287 287 287 287 287 287 287 287 287 287 287 287 287 287 287 287 287 288 288 288 288 288 288 288 288 288 288 288 288 288 288 288 289 290 291 292 293 294 294 294 294 294 293 292 292 291 291
289 289 289 289 289 289 289 289 289 289 288 288 288 288 288 288 288 288 288 288 288 288 288 288 288 287 287 287 287 287 287 287 287 287 287 287 287 287 287 287 287 287 287 287 287 287 286 286 286 286 286 286 286 286 286 287 287 287 288 288 288 288 288 288 288 288 288 288 288 288 288 288 289 289 290 291 291 292 292 292 292 291 291 290 290 290
289 289 289 289 289 289 289 289 289 289 288 288 288 288 288 288 288 288 288 288 288 288 287 288 288 287 287 287 287 287 287 287 287 287 287 287 287 287 287 287 287 287 287 287 287 286 286 286 286 286 286 286 286 286 286 286 286 286 287 287 288 288 288 288 288 288 288 287 287 287 287 287 288 288 288 288 289 289 289 289 289 289 289 289 289 289
289 289 289 288 288 288 288 288 288 288 288 288 288 288 288 288 288 288 287 287 287 287 287 287 287 287 287 287 287 287 288 288 288 288 288 287 287 287 287 287 287 287 287 287 287 287 287 287 286 286 286 286 286 286 286 286 286 286 286 287 287 288 288 288 288 288 288 287 287 288 288 287 287 287 288 288 288 288 288 288 288 288 288 288 289 289
288 288 288 288 288 288 288 288 288 288 288 288 288 288 288 288 287 287 287 287 287 287 287 287 287 287 287 287 288 288 288 288 288 288 288 288 287 287 287 287 287 287 287 287 287 287 287 287 287 287 287 286 286 286 286 285 285 285 286 286 287 287 287 287 288 288 288 287 287 287 287 287 287 287 287 288 288 288 288 288 288 289 289 289 289 289
288 288 288 288 288 288 288 288 288 288 288 288 288 287 287 287 287 287 287 287 287 287 287 287 287 287 287 288 288 288 288 288 288 288 288 287 287 287 287 287 287 287 287 287 287 287 287 287 287 287 287 287 287 286 286 286 285 285 285 285 285 286 286 287 287 287 287 287 287 287 287 287 287 287 287 288 288 288 288 288 288 289 289 289 289 289
288 288 288 288 288 288 288 288 288 288 287 287 287 287 287 287 286 286 286 286 286 286 287 287 287 287 287 287 288 288 288 288 288 287 287 287 287 287 287 287 287 287 287 287 287 287 287 287 287 287 287 287 287 287 287 286 286 286 285 285 285 285 285 286 286 286 286 287 287 287 288 288 288 288 288 288 288 288 288 288 289 289 289 289 289 289
287 287 287 287 287 287 287 287 287 287 287 287 287 286 286 286 286 286 286 286 286 286 286 286 286 287 287 287 287 287 287 287 287 287 287 287 287 287 287 287 287 287 287 287 287 287 287 287 287 287 287 288 287 287 287 287 286 286 286 286 285 285 285 286 286 286 286 287 287 287 287 288 288 288 288 288 288 288 289 289 289 289 289 289 289 289
287 287 287 287 287 287 287 287 287 287 286 286 286 286 286 286 285 285 285 285 285 286 286 286 286 286 286 286 287 287 287 287 287 287 287 286 286 286 286 286 286 286 287 287 287 287 287 287 287 287 288 287 287 287 287 287 287 287 286 286 286 286 286 286 286 286 287 287 287 287 287 287 288 288 288 288 289 289 289 289 289 289 289 289 290 290
286 286 286 287 287 287 286 286 286 286 286 286 286 285 285 285 285 285 285 285 285 285 285 285 285 286 286 286 286 286 286 286 286 286 286 286 286 286 286 286 286 286 286 287 287 287 287 287 287 287 287 287 287 287 287 287 287 287 287 286 286 286 286 286 286 287 287 287 287 287 287 287 287 288 288 288 289 289 289 289 289 289 289 289 290 290
286 286 286 286 286 286 286 286 286 286 285 285 285 284 284 284 284 284 284 285 285 285 285 285 285 285 285 286 286 286 286 286 285 285 285 286 286 286 286 286 286 286 286 287 287 287 287 287 287 287 287 287 287 287 287 287 287 287 286 286 286 286 286 286 287 287 287 287 287 287 287 287 287 288 288 288 289 289 289 290 290 290 289 289 290 290
286 286 286 286 286 286 285 285 285 285 285 284 284 284 284 284 284 284 284 284 284 284 284 285 285 285 285 285 285 285 285 285 285 285 285 285 286 286 286 286 286 286 286 287 287 287 287 287 286 286 286 286 286 286 286 286 286 286 286 286 286 286 286 286 286 286 286 287 287 287 287 287 287 287 288 288 288 289 289 289 289 290 290 290 290 290
285 285 285 285 285 285 285 285 284 284 284 284 284 284 284 284 284 284 284 284 284 284 284 284 284 284 285 285 285 285 285 285 285 285 285 285 286 286 286 286 286 286 286 286 286 286 286 286 286 286 286 286 286 286 286 286 286 286 286 286 286 286 286 286 286 286 286 287 287 287 287 287 287 287 288 288 288 288 288 289 289 289 290 290 290 290
284 285 285 285 285 284 284 284 284 284 284 284 284 283 283 283 283 283 283 284 284 284 283 284 284 284 284 284 284 285 285 285 285 285 285 285 285 286 286 286 286 286 286 286 286 286 286 286 286 286 286 286 286 286 286 286 286 286 286 286 286 286 286 286 286 286 287 287 287 287 287 287 287 287 288 288 288 288 288 288 289 289 290 290 290 290
284 284 284 284 284 284 284 284 284 284 284 284 284 283 283 283 283 283 283 283 283 283 284 284 284 284 284 284 284 284 284 284 285 285 285 285 285 286 285 285 285 285 285 285 285 285 285 285 285 286 286 286 286 286 286 286 286 286 286 286 286 286 286 286 286 286 286 287 287 287 287 287 287 287 287 287 287 288 288 288 289 289 289 290 290 290
284 284 284 284 284 284 284 284 284 284 284 284 284 284 284 284 283 283 283 283 283 283 283 283 283 284 284 284 284 284 284 285 285 285 285 285 285 285 285 285 285 285 285 285 285 285 285 285 285 285 286 286 286 286 286 286 286 286 286 286 286 286 286 286 286 286 286 286 286 287 287 287 287 287 287 287 287 287 287 287 288 288 289 289 290 290
285 285 285 285 285 285 285 285 285 285 285 284 284 284 284 284 284 284 284 284 284 283 283 283 283 283 284 284 284 284 284 284 284 284 284 284 284 284 284 284 284 284 284 285 285 285 285 284 285 285 285 285 286 286 286 286 286 286 286 286 286 286 286 286 286 286 286 286 286 286 286 287 287 287 287 286 286 286 286 286 286 287 288 288 289 289
286 286 286 286 286 285 285 285 285 285 285 285 285 285 285 285 284 284 284 284 283 283 283 283 283 283 283 284 284 284 284 284 284 284 284 284 284 284 284 284 284 284 284 284 284 284 284 284 284 285 285 285 285 285 285 285 285 285 285 286 286 286 286 286 286 286 286 286 286 286 286 286 286 286 286 286 286 285 285 285 286 286 286 287 288 288
286 286 286 286 286 286 286 286 286 286 286 286 285 285 285 285 284 284 284 284 283 283 282 282 283 283 283 283 283 283 284 284 284 284 283 283 283 283 284 284 284 284 284 284 284 284 284 284 284 284 285 285 285 285 285 285 285 285 285 285 285 285 286 286 286 286 286 286 286 286 286 286 286 285 285 285 285 285 285 285 285 286 286 286 287 287
287 287 287 287 287 287 287 287 286 286 286 286 286 286 285 285 284 284 284 283 283 283 282 282 282 282 282 283 283 283 283 283 283 283 283 283 283 283 283 283 283 283 283 283 283 284 284 284 284 284 284 284 285 285 285 285 285 285 285 285 285 285 285 286 286 286 286 286 286 286 286 286 286 286 286 286 286 286 286 286 286 286 286 286 286 287
287 287 287 287 287 287 287 287 287 286 286 286 286 286 285 285 285 284 284 284 283 283 282 282 282 282 282 282 282 283 283 283 283 283 283 283 283 283 283 283 283 283 283 283 283 283 283 284 284 284 284 284 284 285 285 285 285 285 285 285 285 286 286 286 286 286 286 286 286 286 286 286 286 286 286 286 286 286 286 286 286 286 286 286 286 286
287 287 287 287 287 287 287 287 287 286 286 286 286 286 285 285 285 284 284 284 283 283 282 282 282 282 282 282 282 282 283 283 283 283 283 283 282 282 282 282 282 282 282 282 282 283 283 283 284 284 284 284 284 284 284 285 285 285 285 285 286 286 286 286 286 286 286 286 286 286 286 286 286 286 286 286 286 286 286 286 286 286 286 286 286 286
287 287 287 286 286 286 286 286 286 286 286 286 286 286 286 285 285 285 284 284 283 283 282 282 282 281 281 281 281 282 282 283 284 283 283 282 282 282 282 282 282 281 281 281 281 282 282 283 283 284 284 283 283 284 284 284 284 285 285 285 285 286 286 286 286 286 286 286 286 286 286 286 286 286 286 286 287 287 287 286 286 286 286 286 286 286
286 286 286 286 286 286 286 286 286 286 286 286 286 286 286 285 285 285 285 284 284 283 282 282 282 281 281 281 281 281 282 283 284 283 282 282 281 281 281 281 281 281 281 281 281 281 281 282 282 283 283 283 283 283 283 283 284 284 284 284 285 285 285 286 285 285 286 286 286 286 286 286 286 286 286 286 287 287 287 287 286 286 286 285 286 286
286 286 286 286 286 286 286 286 286 286 286 286 286 285 285 285 285 285 285 284 284 283 282 282 282 281 281 281 281 282 282 283 283 283 282 281 281 281 281 281 281 281 280 280 280 281 281 281 281 282 282 282 282 282 283 283 283 284 284 284 284 285 285 285 285 285 285 286 286 286 286 286 286 286 286 286 286 287 287 287 286 286 286 286 286 286
286 286 286 286 286 286 286 286 285 285 285 285 285 285 284 284 284 284 284 284 284 283 283 282 282 282 281 281 281 282 283 284 283 283 282 281 281 280 280 280 280 280 280 280 280 280 280 280 281 281 281 282 282 282 282 283 283 283 283 284 284 284 284 285 285 285 285 285 286 286 286 286 286 286 286 286 286 286 286 286 286 286 286 286 286 286
286 286 286 286 286 286 286 285 285 285 285 284 284 284 284 284 284 284 284 283 283 283 283 283 283 282 282 282 282 282 283 283 283 283 282 281 280 280 280 280 280 280 280 280 280 280 280 280 280 281 281 281 281 282 282 282 283 283 283 283 283 284 284 284 284 285 285 285 285 286 286 286 286 286 286 286 286 286 286 286 286 286 286 286 286 286
286 286 286 286 286 286 286 285 285 285 284 284 284 284 284 284 284 284 284 284 283 283 283 283 283 283 283 283 282 282 283 283 283 283 282 282 281 280 280 280 280 280 279 279 279 280 280 280 280 280 281 281 281 282 282 282 283 283 283 283 283 283 284 284 284 284 284 285 285 286 286 286 286 286 286 286 286 286 286 286 286 286 286 286 286 286
286 286 286 286 286 286 285 285 285 284 284 284 284 284 284 284 284 284 284 284 284 284 284 284 284 283 283 283 283 283 283 283 283 283 282 282 281 280 280 280 280 280 279 279 279 279 280 280 280 280 280 281 281 281 282 282 282 282 283 283 283 283 283 284 284 284 284 285 285 285 285 285 285 285 285 285 285 285 285 285 285 285 286 286 286 286
286 286 285 286 285 285 285 285 285 284 284 284 284 284 284 284 284 284 284 284 284 284 283 283 283 283 283 283 283 283 283 283 283 283 282 282 281 281 280 280 280 280 280 280 279 279 279 279 280 280 280 281 281 281 282 282 282 282 282 283 283 283 283 283 284 284 284 284 284 285 285 285 285 285 285 285 285 285 285 285 285 285 285 285 285 285
285 285 285 285 285 285 284 284 284 284 284 284 284 284 284 284 284 284 283 283 283 283 283 283 283 283 283 283 283 283 283 283 283 283 282 282 282 281 281 280 280 280 280 280 280 279 279 279 280 280 280 280 281 281 281 282 282 282 282 282 283 283 283 283 283 283 284 284 284 284 284 284 285 285 285 285 284 284 284 285 285 284 284 284 285 285
284 284 284 284 284 284 284 284 284 284 284 284 284 284 284 283 283 283 283 283 283 283 283 283 283 283 283 283 283 282 282 282 282 282 282 282 282 282 281 281 280 280 280 280 280 280 280 280 280 280 280 280 281 281 281 281 281 282 282 282 282 283 283 283 283 283 283 283 283 284 284 284 284 284 284 284 284 284 284 284 284 284 284 284 284 284
284 284 284 284 284 283 283 283 284 284 284 284 284 283 283 283 283 283 283 283 283 283 283 282 282 282 283 282 282 282 282 282 282 282 282 282 282 282 281 281 281 281 280 280 280 280 280 280 280 280 280 280 280 281 281 281 281 282 282 282 282 282 283 283 283 283 283 283 283 283 283 283 283 284 284 284 284 284 284 284 284 284 283 283 284 284
283 283 283 283 283 283 283 284 284 284 284 283 283 283 282 282 282 282 282 282 282 282 282 282 282 282 282 282 283 282 282 282 282 282 282 282 282 282 281 281 281 281 280 280 280 280 280 280 280 280 280 280 280 281 281 281 281 281 281 281 282 282 282 283 283 283 283 283 283 283 283 283 283 283 283 283 283 283 283 283 283 283 283 283 283 283
283 283 283 283 282 283 283 283 283 283 283 283 282 282 282 282 282 282 282 282 282 282 282 281 281 281 281 281 282 282 282 282 282 282 282 281 281 281 281 281 281 280 280 280 280 280 280 280 280 280 281 281 280 280 281 281 281 281 281 281 281 282 282 283 283 283 283 283 283 283 283 283 283 283 283 283 283 283 283 283 283 283 283 283 283 283
282 282 282 282 282 282 282 282 282 282 282 282 282 282 282 282 282 282 281 281 281 281 281 281 281 280 281 281 281 281 282 282 282 282 282 282 282 281 281 281 281 280 280 280 280 280 280 280 280 281 281 281 280 280 280 281 281 281 282 282 282 282 282 282 283 283 282 282 283 283 283 283 283 283 283 283 283 283 283 284 284 284 284 284 283 284
282 282 282 281 281 281 281 281 282 282 282 282 282 282 282 282 282 282 281 281 281 281 281 280 280 280 280 280 281 281 281 282 282 282 282 282 282 282 281 281 281 280 280 280 280 280 280 280 281 281 281 281 280 280 280 281 281 281 282 282 282 282 282 282 282 282 282 282 283 283 283 283 283 283 283 283 283 283 284 284 284 284 284 284 284 284
281 281 281 281 281 281 281 281 281 282 282 282 282 282 282 282 282 282 281 280 280 280 280 280 280 280 280 280 280 281 281 282 282 282 282 282 282 282 282 281 281 281 280 280 280 280 281 281 281 281 281 281 281 281 281 281 281 281 282 282 282 282 282 282 282 282 283 283 283 283 283 283 283 282 283 283 283 283 283 284 284 284 284 284 284 284
281 281 281 281 281 281 281 281 281 281 282 282 282 282 282 282 282 281 281 280 280 280 280 280 280 280 280 280 280 280 281 281 282 282 283 283 283 282 282 282 282 281 281 281 281 281 281 281 281 281 281 281 281 281 282 282 282 282 282 282 282 282 282 282 283 283 283 283 283 283 283 283 283 283 283 283 283 283 283 283 284 284 284 284 284 285
281 281 281 281 281 281 281 281 281 281 281 282 282 282 282 282 281 281 280 280 280 280 280 280 280 280 280 280 280 280 281 281 281 282 282 283 283 283 282 282 282 282 281 281 281 281 281 281 281 281 281 281 281 282 283 283 283 282 282 282 282 282 282 283 283 283 283 283 283 283 283 283 283 283 283 283 283 283 283 283 284 284 284 284 284 285
281 281 280 280 280 281 281 281 281 281 281 282 282 282 282 282 281 281 280 280 280 280 280 280 280 280 280 280 280 281 281 281 281 281 282 282 282 282 282 282 282 282 282 282 282 281 281 281 281 281 281 281 282 282 283 283 283 283 283 283 282 282 282 283 283 283 283 283 283 283 283 283 283 283 283 283 283 283 283 283 284 284 284 284 284 284
281 281 280 280 280 281 281 281 281 281 281 282 282 282 281 281 281 281 281 280 280 280 280 280 280 280 280 280 280 281 281 281 281 281 282 282 281 281 281 281 281 281 281 282 282 282 282 282 282 282 282 282 282 282 283 283 283 283 283 282 282 282 282 283 283 283 283 283 283 283 283 283 283 283 283 283 283 283 283 283 284 284 284 284 284 284
281 281 280 280 280 281 281 281 281 281 282 282 282 282 281 281 281 281 281 280 280 280 280 280 280 280 280 280 280 281 281 281 281 281 281 281 281 281 281 281 281 281 281 281 282 282 282 282 282 282 282 283 283 282 283 283 283 283 283 283 283 283 283 283 283 283 283 283 283 283 283 283 283 283 283 283 283 283 283 284 284 284 284 284 284 284
Wind_Speed
29 30 31 32 32 32 33 33 33 33 34 35 36 36 37 38 38 38 38 37 37 38 38 38 37 37 37 38 38 38 38 38 38 38 38 39 39 40 40 40 40 40 40 40 40 40 39 38 38 37 36 36 35 35 34 34 33 32 32 32 31 31 32 32 33 34 35 36 38 39 40 40 40 39 38 37 36 35 36 36 37 37 37 36 36 35
26 26 27 28 29 29 29 30 30 31 32 33 34 35 36 37 37 37 37 37 37 36 36 36 36 36 35 36 36 36 36 36 36 36 36 36 37 37 38 38 39 39 39 40 39 39 39 38 37 37 36 36 35 35 34 34 33 32 31 30 29 29 29 30 30 31 32 33 34 35 37 38 39 40 41 40 39 37 37 38 39 39 39 38 37 36
22 23 22 22 23 25 25 26 27 29 30 31 33 34 35 35 36 36 36 36 35 35 35 34 34 33 33 33 33 33 33 33 33 33 33 33 34 35 35 36 36 37 38 38 38 38 38 37 37 36 36 35 35 35 35 34 34 33 33 31 30 30 29 29 29 29 29 30 30 31 31 32 33 35 37 38 38 38 39 40 41 42 41 41 39 38
21 20 19 19 21 23 23 24 25 27 29 30 31 32 33 33 34 34 34 33 33 33 33 33 32 32 31 31 31 31 32 31 31 31 31 31 31 32 32 33 34 34 35 35 36 36 36 36 36 36 36 35 35 35 35 35 35 34 34 33 33 32 31 30 30 29 28 28 28 27 25 24 25 26 28 30 32 33 35 38 41 43 43 43 42 41
19 18 18 20 21 22 22 22 24 25 27 28 29 30 31 31 32 32 31 31 31 30 31 31 31 31 31 31 31 31 31 30 30 30 29 29 29 29 29 30 30 31 31 32 32 33 33 34 34 34 34 34 34 34 34 34 34 34 34 34 34 34 34 33 32 31 30 29 28 27 23 20 20 21 23 25 26 27 29 32 36 39 41 42 42 42
19 18 20 21 22 22 22 22 23 24 25 25 26 27 29 30 30 29 28 28 28 28 29 30 30 31 31 31 31 31 31 30 30 29 28 28 27 27 27 27 27 27 28 28 28 29 29 30 31 31 32 32 32 33 33 33 33 33 33 33 33 34 34 34 34 33 32 31 31 29 27 24 23 24 24 26 26 26 27 28 30 32 33 34 35 36
19 20 21 21 21 21 21 21 22 21 21 23 25 27 28 28 27 26 25 25 26 27 28 28 29 29 29 30 30 31 31 31 30 30 28 27 27 26 26 25 25 25 25 25 26 26 26 27 27 28 28 29 30 30 30 31 31 31 31 31 31 32 32 32 33 33 32 32 32 31 30 28 27 28 28 29 29 29 29 29 29 29 29 29 29 29
20 20 20 20 20 20 20 20 19 19 20 23 25 27 28 26 24 22 22 23 24 25 26 26 26 26 26 27 28 30 30 31 30 29 28 27 26 26 25 25 25 25 25 25 25 25 25 25 26 26 26 27 27 28 28 28 29 29 29 29 29 29 29 30 30 31 31 31 31 31 31 31 31 31 31 32 32 32 33 32 32 32 32 31 30 29
20 19 18 17 17 18 20 19 18 18 20 23 24 25 25 24 22 21 21 21 22 22 23 24 25 24 25 25 27 28 29 29 28 28 28 27 27 26 26 26 26 25 25 25 25 25 25 25 25 25 25 25 26 26 27 27 27 27 27 27 27 27 27 27 28 28 29 29 30 30 31 32 32 33 34 34 35 35 36 36 36 37 37 36 35 34
17 17 16 16 16 17 18 19 18 17 19 21 22 21 21 21 20 21 21 22 22 22 22 22 23 24 25 26 26 27 27 26 26 26 26 26 27 28 28 28 28 28 27 27 26 25 25 24 24 23 24 24 24 24 25 25 25 25 25 25 25 25 25 25 26 26 26 27 27 28 29 30 32 33 34 35 36 37 38 38 39 39 39 39 38 38
15 15 15 16 16 16 16 17 17 17 18 20 20 19 17 17 18 20 22 23 23 23 22 21 22 23 25 25 25 25 25 24 24 23 24 25 26 27 29 29 30 30 31 30 30 29 27 26 24 23 22 22 21 22 22 22 23 23 23 23 23 23 23 24 24 24 24 25 25 26 27 28 29 31 32 33 34 35 36 37 38 38 39 39 39 38
14 14 14 15 15 15 15 15 16 16 16 17 17 16 15 15 17 19 21 22 23 22 22 22 22 22 23 24 23 23 22 22 22 22 23 24 25 26 28 28 29 30 32 33 33 32 31 29 27 25 23 21 20 19 19 19 20 20 21 21 21 21 21 22 22 22 23 23 24 24 25 26 27 28 29 30 31 32 33 33 34 35 35 36 37 37
14 14 14 15 14 14 14 15 15 15 14 15 15 15 16 17 18 19 20 20 21 21 22 22 22 22 22 21 21 20 20 20 21 22 23 24 24 26 26 27 28 29 31 32 33 33 32 32 30 28 25 23 21 20 19 18 18 18 19 19 20 20 20 21 21 22 22 23 23 24 24 25 26 27 27 28 28 29 30 30 31 31 32 33 33 34
13 13 14 14 14 14 14 14 14 14 14 14 15 16 18 18 19 19 19 20 21 21 22 22 22 22 21 19 18 18 19 20 22 23 23 24 24 26 27 28 28 29 30 30 30 31 31 31 31 29 28 25 24 22 21 20 19 19 19 19 20 20 21 21 22 22 23 23 24 24 24 25 26 26 27 27 28 28 29 29 29 30 30 31 31 31
12 13 13 13 14 13 13 13 14 14 15 15 16 17 17 18 18 19 19 20 21 22 22 22 22 21 20 18 17 18 19 21 22 23 24 25 26 27 28 29 29 30 30 30 29 29 29 29 29 28 28 27 26 25 24 23 22 21 20 20 20 21 21 22 22 23 23 24 24 24 24 24 25 25 26 26 27 28 28 29 29 29 29 29 30 30
12 13 14 14 14 14 13 13 14 15 15 16 16 17 17 18 18 19 20 21 22 22 22 22 22 22 20 19 18 18 20 21 22 23 25 26 27 28 29 30 30 30 29 28 28 28 27 27 27 26 26 26 26 27 27 26 25 23 22 21 21 21 21 21 22 22 23 23 23 22 22 23 23 24 24 25 26 27 27 28 28 28 29 29 29 29
13 14 14 14 14 14 14 14 14 15 16 16 16 17 17 18 19 20 21 21 21 21 21 21 21 22 22 21 19 19 20 22 23 25 26 28 29 29 29 28 28 28 27 27 27 26 26 25 25 25 25 25 26 27 28 27 27 25 24 23 22 22 21 21 21 21 21 21 21 21 21 22 22 23 23 24 25 26 26 27 27 28 28 28 28 29
14 14 15 15 15 15 15 15 15 16 16 16 17 18 20 21 21 21 20 20 20 21 21 21 21 21 22 23 22 21 22 24 25 26 28 29 29 29 27 26 25 25 25 25 25 25 25 24 24 24 25 26 27 27 28 28 27 27 26 25 24 23 22 22 21 21 20 20 21 21 21 22 22 22 22 23 24 24 25 26 27 27 28 28 28 28
15 15 15 15 15 15 15 16 16 16 16 17 19 21 22 22 22 21 20 20 20 20 21 22 22 22 22 23 24 24 25 26 27 28 28 28 28 27 25 24 24 24 23 24 24 24 24 24 25 26 26 27 27 27 27 27 28 28 27 27 25 24 23 23 22 21 21 21 21 21 21 21 22 22 22 22 22 23 24 24 25 26 27 27 27 27
16 16 16 15 15 15 15 15 16 17 18 20 22 23 23 23 23 22 21 20 20 21 21 22 22 23 24 25 26 27 27 28 28 28 28 27 27 25 24 23 22 22 22 22 23 23 23 24 24 25 26 26 25 26 27 28 28 28 28 27 26 25 24 23 22 22 21 21 21 21 21 22 22 22 22 22 22 22 22 23 23 24 25 25 26 26
16 16 16 15 15 16 17 18 19 20 21 22 23 24 25 24 24 22 22 21 22 22 23 22 23 24 25 26 28 28 29 28 27 26 26 26 25 23 22 21 21 22 22 22 23 23 23 23 24 24 25 25 25 26 27 28 28 28 27 26 26 25 24 23 22 22 21 21 21 21 21 22 22 22 22 22 22 22 22 22 22 23 23 24 25 25
16 16 17 18 18 18 19 21 22 22 22 23 24 24 25 24 24 24 25 24 24 24 24 24 24 26 27 29 30 29 28 25 23 23 24 24 25 24 22 21 21 22 23 24 24 25 24 24 24 25 25 26 26 27 28 28 28 27 26 26 25 24 24 23 23 22 21 21 21 21 21 21 21 21 22 22 22 22 22 22 22 23 23 23 24 24
17 18 19 20 20 21 21 22 23 23 24 24 24 24 24 24 25 26 26 25 25 25 25 26 26 28 28 29 28 27 24 22 21 20 21 23 24 24 22 23 23 23 23 24 25 26 25 25 25 26 27 27 28 28 28 28 27 26 26 25 25 24 24 24 23 23 22 22 21 21 21 20 20 21 21 22 22 23 23 23 23 23 23 23 23 24
17 18 19 20 20 21 22 23 23 24 24 24 24 24 25 25 25 26 26 26 26 27 27 28 28 28 27 25 24 22 21 19 19 19 20 22 23 23 23 24 24 24 24 25 27 27 26 26 27 28 28 29 29 29 28 28 27 26 25 25 25 25 25 24 24 24 23 23 23 22 22 22 22 23 23 24 24 25 25 25 25 24 24 24 23 24
17 18 19 19 20 20 21 22 22 22 23 23 23 24 24 24 24 24 25 25 25 25 25 25 24 24 23 22 21 20 20 19 19 20 21 22 23 24 24 24 25 25 25 26 27 28 27 27 28 29 30 30 30 29 28 27 26 25 25 25 26 26 26 25 25 25 24 24 24 24 24 25 25 26 27 27 27 28 28 28 27 27 27 26 26 26
16 17 18 19 19 20 20 20 21 21 21 21 22 22 23 23 23 24 24 24 23 22 21 21 21 21 22 21 21 20 20 20 20 21 21 22 23 24 25 25 25 25 26 26 27 27 27 28 29 30 30 30 29 28 26 26 26 26 26 27 27 27 27 27 26 26 25 25 24 25 25 26 26 27 28 28 28 28 28 29 29 29 29 29 29 29
17 18 18 19 19 19 20 20 20 20 20 20 21 21 22 22 22 22 22 22 21 20 19 20 21 22 22 22 21 21 21 21 21 21 21 21 22 23 24 24 24 24 26 28 28 27 28 28 29 30 29 28 27 25 25 25 25 26 27 28 28 28 28 28 28 27 26 25 24 24 23 23 24 24 24 25 25 26 26 27 28 29 30 30 31 32
19 19 19 20 20 20 20 20 20 20 20 20 21 21 21 21 21 20 20 21 20 20 20 20 21 22 21 21 22 22 23 23 22 20 19 20 20 22 23 24 24 25 27 29 30 30 29 29 28 27 26 25 24 24 24 25 26 27 28 29 29 29 29 29 28 27 27 26 25 24 23 22 22 21 21 21 21 22 23 24 25 26 27 29 30 31
20 21 21 21 21 21 21 21 20 20 20 20 20 20 20 19 19 19 19 20 20 20 20 20 21 21 22 23 24 25 24 22 20 18 18 19 21 23 25 25 25 25 27 29 31 31 29 27 26 24 23 23 23 24 25 26 27 29 29 29 29 29 29 28 28 27 27 27 26 26 25 24 23 22 21 20 20 20 20 21 22 23 25 26 28 29
21 22 22 22 22 22 22 21 21 20 20 19 19 18 18 18 18 18 18 19 19 19 20 20 20 21 22 23 24 23 22 20 18 18 19 21 23 25 26 26 25 25 26 27 28 29 29 28 25 23 22 23 24 25 27 28 29 29 30 30 30 30 29 28 28 28 28 28 28 27 27 26 26 24 23 22 21 20 20 20 20 21 23 25 25 26
22 22 22 22 23 22 22 22 21 20 20 19 18 18 18 18 18 18 18 18 18 19 19 20 20 21 21 21 21 20 21 21 21 22 23 23 23 24 26 26 26 26 26 25 24 25 28 29 28 26 24 24 26 28 29 29 29 30 30 30 30 30 30 29 29 29 29 29 29 29 28 28 27 27 26 25 24 23 21 20 20 20 22 24 25 26
22 23 23 23 22 22 22 21 21 20 20 20 19 19 19 19 19 19 19 19 19 19 20 21 21 21 21 21 21 22 24 25 25 24 24 24 25 26 27 26 27 27 26 24 22 23 25 27 29 30 28 27 27 29 30 30 29 29 29 29 30 30 30 30 29 29 29 30 30 30 29 29 29 28 28 27 26 25 24 22 20 20 22 24 25 26
22 22 22 22 22 21 21 21 20 20 20 20 20 20 20 20 20 20 20 20 20 20 20 21 22 22 22 23 24 25 26 26 25 24 23 24 26 27 27 26 26 27 26 25 24 24 26 28 30 32 31 30 29 28 29 29 28 28 28 28 29 30 30 30 29 29 30 30 30 31 30 30 30 30 30 29 28 27 26 24 22 21 21 23 25 26
22 22 22 21 21 20 20 20 20 20 20 20 20 20 20 20 20 20 21 21 21 21 21 21 22 23 23 24 25 27 27 26 25 23 23 23 25 26 26 26 26 26 26 26 25 25 27 29 30 31 31 32 30 28 27 27 27 27 27 27 28 29 30 30 30 30 31 31 31 31 31 31 32 31 31 31 30 29 28 26 24 23 22 22 24 25
21 21 20 20 20 19 19 19 19 19 20 20 20 20 21 21 21 21 22 22 22 22 22 22 22 23 23 24 26 27 28 26 24 23 22 23 24 25 26 27 26 25 26 26 26 26 27 29 29 29 30 31 30 29 27 26 25 26 26 26 27 27 28 29 30 30 31 32 32 32 33 33 33 33 32 32 31 30 29 28 27 25 24 23 23 24
20 20 19 19 19 19 19 19 19 20 20 20 21 21 22 22 22 23 23 23 23 23 23 23 23 23 23 24 25 27 28 27 25 23 22 22 23 24 26 27 26 25 26 26 26 26 27 28 28 28 29 30 30 30 28 26 25 25 26 27 27 28 28 29 29 30 31 32 33 33 34 33 33 33 33 33 32 32 31 30 29 28 26 25 24 24
19 18 18 18 18 19 19 19 19 20 20 21 22 22 23 23 23 24 24 24 24 24 24 24 24 24 24 24 25 26 27 27 26 25 23 23 23 24 25 26 26 25 25 26 27 27 27 28 29 29 29 28 28 28 28 28 28 27 28 28 28 28 29 29 30 30 30 32 33 34 34 34 33 33 33 33 33 32 31 31 30 29 28 27 26 25
17 17 17 18 18 19 19 20 20 20 21 22 23 23 23 24 24 24 24 24 24 24 24 24 24 24 24 25 26 27 27 27 27 26 25 24 23 24 25 26 26 25 25 25 26 27 27 28 29 29 29 29 29 29 29 29 29 30 30 30 30 30 30 30 30 30 30 31 32 33 33 33 33 33 33 33 32 31 31 31 30 29 28 28 27 27
17 17 17 18 18 19 19 20 20 21 22 22 23 23 24 24 24 24 23 23 23 23 23 23 24 24 25 25 26 27 27 27 27 27 26 25 24 24 25 26 26 26 25 25 25 26 27 28 28 28 29 31 31 31 31 30 30 30 31 32 33 32 31 30 29 29 30 31 32 33 33 33 33 32 32 32 31 31 31 30 29 28 28 27 27 28
18 17 17 18 18 19 19 20 21 22 22 23 23 23 24 23 23 23 22 22 22 22 22 23 24 24 25 26 26 27 27 27 27 27 27 26 26 25 25 25 26 26 26 25 25 26 27 28 29 30 31 32 34 34 34 34 33 32 31 33 33 33 32 30 30 31 32 32 32 32 33 32 32 31 31 31 31 30 30 30 30 29 28 27 26 27
19 18 19 19 18 19 19 20 21 22 22 23 23 23 23 23 23 22 22 22 22 22 22 23 24 25 26 26 26 27 26 27 27 27 26 26 26 26 26 26 26 26 26 26 26 26 27 28 29 30 32 33 33 34 35 35 34 32 31 32 33 34 35 34 33 32 31 31 30 30 30 30 31 31 31 31 30 30 29 29 29 29 28 27 27 27
20 20 20 19 19 20 20 21 21 22 22 22 22 22 22 22 22 23 23 23 23 24 24 24 25 26 27 28 27 27 27 26 26 26 26 26 26 26 26 26 26 26 26 27 27 28 28 29 29 31 32 33 33 34 36 37 36 34 32 32 34 36 36 35 33 30 28 28 28 28 29 29 30 31 31 31 30 30 30 30 30 30 29 29 29 29
20 20 20 20 20 21 21 21 22 22 21 21 21 21 21 22 22 23 24 24 25 25 25 26 26 27 28 29 29 28 27 26 26 26 25 25 25 25 25 26 26 26 26 27 28 29 29 29 30 31 32 33 33 34 35 37 38 36 33 33 33 33 33 34 33 30 28 29 30 30 30 30 30 30 30 30 30 30 30 30 30 30 30 30 30 30
21 21 21 21 22 22 22 22 22 21 21 21 21 21 21 22 22 23 24 25 25 26 26 26 27 27 28 29 29 29 28 27 26 25 25 24 24 24 24 25 26 26 26 26 28 29 30 31 31 32 32 33 33 34 35 37 37 36 35 34 33 33 33 35 35 33 32 32 31 30 30 30 30 30 31 31 31 32 32 31 31 30 30 30 30 30
22 22 22 22 22 22 22 21 21 21 21 21 21 22 22 22 23 24 24 25 25 26 26 26 26 26 26 27 28 29 28 28 28 26 26 25 24 24 24 25 25 26 26 27 28 29 30 31 33 33 33 33 34 35 36 37 38 38 38 37 35 34 34 35 34 33 32 33 33 32 32 31 31 31 32 32 33 33 32 32 32 32 31 31 30 30
22 22 22 22 22 21 21 21 21 21 21 22 22 22 23 23 24 25 25 25 25 26 25 25 25 25 26 27 27 28 29 29 29 28 27 26 25 25 25 25 25 26 26 27 28 30 30 32 33 34 34 35 36 37 37 37 37 37 38 37 36 35 34 34 34 34 33 33 33 33 32 31 30 30 31 33 33 33 33 32 32 32 32 31 31 31
22 22 22 22 22 22 21 21 22 22 22 23 23 24 24 24 25 25 25 25 25 25 25 25 25 25 25 26 26 26 27 28 29 29 28 27 27 26 26 26 26 26 27 28 29 30 31 32 33 33 34 35 36 37 38 37 36 36 37 36 36 35 35 36 35 34 33 32 32 32 32 31 31 31 33 34 34 34 34 34 34 33 32 31 31 31
22 22 23 23 22 22 22 22 22 22 23 24 24 24 25 25 25 25 25 25 25 25 25 25 25 25 26 26 26 26 26 27 28 29 29 28 28 28 27 27 27 28 28 29 30 31 32 32 32 32 32 33 35 37 38 37 36 35 35 35 35 35 36 36 36 35 34 33 33 33 33 32 32 33 34 34 35 36 36 36 35 34 33 32 31 31
23 23 22 22 22 22 23 22 23 23 24 25 25 25 25 25 25 25 25 25 25 25 25 24 24 25 26 26 27 26 26 27 28 29 29 29 28 28 28 28 29 29 30 30 31 31 32 32 32 32 31 31 32 34 36 36 35 35 35 35 35 35 36 37 37 36 35 34 34 34 34 33 33 34 33 34 35 36 37 37 36 35 34 33 32 32
23 22 22 22 22 22 23 23 23 23 24 25 26 26 26 26 26 26 25 25 25 24 24 24 25 25 26 27 27 27 27 28 28 29 29 29 28 28 28 29 29 30 31 31 31 30 30 30 31 31 30 28 28 30 32 34 35 35 35 35 35 35 35 36 37 36 35 35 35 35 35 35 35 34 33 33 35 37 38 38 38 37 36 34 33 33
23 23 22 22 22 22 23 23 23 24 25 26 27 27 27 27 27 26 26 25 25 24 24 25 25 26 26 27 28 28 28 28 29 30 30 29 28 27 28 29 29 30 31 31 31 30 28 28 28 28 28 27 26 26 28 30 32 34 35 35 35 34 33 34 35 35 35 35 34 34 34 34 34 34 33 33 34 36 37 38 39 38 36 34 33 33
Wind_Direction
293 294 294 295 296 297 297 297 297 297 297 296 296 295 295 295 295 296 296 297 297 297 297 297 297 297 297 297 296 295 295 294 294 294 293 292 292 292 291 291 291 291 291 291 291 291 290 290 290 290 289 288 287 286 285 285 284 284 283 282 280 278 276 274 271 268 266 264 263 262 261 260 259 258 257 256 256 256 256 256 256 257 257 258 259 260
295 296 298 298 298 299 299 299 299 299 299 299 299 299 299 300 301 301 302 302 302 302 302 302 302 302 301 301 300 299 299 298 298 298 297 296 296 295 295 294 294 294 293 293 293 293 292 292 292 291 290 289 288 287 285 284 283 282 282 281 281 280 279 278 276 274 272 270 268 266 265 264 263 261 259 257 256 256 256 256 256 256 256 256 257 259
294 296 298 298 298 298 299 300 300 300 300 301 302 302 303 304 306 307 308 308 308 307 307 307 306 306 305 304 304 303 302 302 302 302 301 301 300 300 299 299 298 298 297 297 296 296 296 295 294 294 293 292 290 289 287 285 284 283 281 280 279 279 278 278 278 277 276 275 274 273 273 272 270 268 265 262 260 258 257 257 256 256 256 256 256 258
293 295 295 295 295 297 299 301 301 301 302 303 304 306 307 309 311 312 312 312 312 312 311 311 310 310 308 308 307 306 305 305 305 304 304 303 303 302 302 301 301 300 300 299 299 298 298 297 297 296 295 294 293 292 291 289 287 286 284 282 281 279 278 277 277 277 277 277 276 277 278 279 279 278 273 269 265 262 260 259 258 258 257 257 258 259
293 293 293 294 295 297 300 301 302 303 305 306 307 308 311 313 315 315 315 315 315 314 315 315 314 314 312 311 310 309 308 307 306 305 304 304 303 302 301 301 300 300 299 299 298 298 298 298 297 297 296 296 295 294 293 292 291 290 288 286 284 283 281 280 279 278 277 277 276 274 273 271 270 270 269 267 266 264 263 262 261 261 262 262 262 262
293 293 293 295 297 299 301 302 303 305 307 307 308 310 313 316 317 318 317 317 317 317 317 318 318 318 317 315 314 313 312 310 309 308 306 305 303 302 300 299 298 297 297 296 296 296 296 296 296 296 296 296 295 295 294 293 293 292 291 289 288 287 285 284 282 280 279 278 276 274 271 265 260 258 259 259 260 262 263 264 265 266 267 268 267 266
295 295 297 299 301 301 303 304 306 307 308 308 310 313 316 318 319 319 318 318 319 319 319 320 320 320 320 319 318 318 317 316 315 314 312 310 307 305 303 301 299 297 296 295 294 294 294 294 295 295 296 295 295 295 294 293 293 292 291 291 290 289 288 286 284 282 280 278 275 273 271 266 262 260 259 259 259 261 263 265 267 269 270 271 270 268
298 299 301 302 304 305 305 306 307 307 308 310 313 316 320 322 321 320 319 319 319 319 319 319 319 319 319 319 320 320 321 321 321 320 319 317 314 312 309 306 303 300 298 296 295 294 293 294 294 294 294 294 294 294 293 293 292 292 291 291 290 289 288 287 285 283 280 278 275 272 270 267 264 262 261 261 261 262 263 265 267 269 270 270 269 268
301 303 304 303 304 307 308 308 307 308 311 313 316 319 322 323 322 319 318 317 317 317 318 318 317 317 316 317 319 320 322 323 323 324 323 322 320 318 316 313 311 308 306 303 301 299 297 296 295 294 293 292 292 291 291 291 291 291 290 290 289 288 287 286 284 282 280 278 275 272 270 267 265 263 262 262 262 263 263 264 266 268 269 270 269 267
304 305 306 306 306 308 310 310 309 310 313 316 318 321 323 323 320 318 316 315 316 317 317 317 316 316 316 317 319 321 322 322 323 323 324 323 322 322 321 320 319 318 316 314 313 310 307 304 302 299 296 294 292 290 289 289 289 289 289 289 288 287 286 285 283 282 280 278 276 273 271 269 266 265 264 263 263 263 264 265 266 268 269 269 268 267
306 306 308 309 309 310 310 310 310 312 315 318 320 320 320 319 317 316 315 315 316 318 318 316 315 315 316 317 319 321 321 320 320 319 319 320 320 321 322 322 322 322 322 321 321 320 319 317 314 310 306 301 297 294 292 289 288 288 288 287 287 286 285 284 282 281 279 277 275 274 272 270 269 268 267 266 266 266 266 267 268 269 269 269 268 267
308 309 310 310 311 312 311 311 312 313 316 319 319 318 316 315 315 314 314 314 315 316 316 315 314 314 315 316 317 318 318 317 315 315 315 315 317 318 319 319 319 320 320 321 322 323 323 324 323 320 317 313 308 304 300 295 292 290 288 287 286 285 284 282 280 278 277 276 276 275 275 273 272 271 271 270 270 270 270 270 270 270 270 270 270 269
311 311 311 311 311 312 313 313 314 316 317 317 317 315 314 314 314 314 312 311 312 313 314 313 313 313 314 315 316 316 314 313 312 312 313 313 314 315 315 315 314 315 316 317 318 320 322 323 324 324 323 321 318 315 312 306 301 296 292 288 285 283 281 279 278 277 277 277 278 278 277 277 275 275 274 273 273 273 273 272 272 272 272 272 272 271
311 311 311 311 311 312 314 314 314 315 315 315 314 313 312 312 313 313 312 311 311 312 313 312 311 312 314 314 314 314 312 311 311 311 312 312 312 313 313 312 312 313 314 314 315 316 319 321 321 322 323 323 322 320 319 315 311 305 299 293 288 284 282 280 279 279 280 281 282 281 281 280 279 277 276 275 274 273 273 273 273 273 273 273 273 272
311 312 311 311 311 311 312 313 313 312 312 312 312 311 311 312 313 313 313 311 312 313 314 312 312 312 312 313 313 313 312 311 311 311 311 310 310 311 312 312 311 312 314 313 313 314 317 318 318 318 320 320 320 319 318 317 315 312 307 301 296 291 287 285 284 284 283 284 285 285 285 284 283 281 280 278 277 275 274 274 273 273 273 273 273 273
311 311 310 309 309 309 310 310 310 309 310 310 310 311 312 312 313 313 313 312 313 314 315 315 314 313 312 313 314 314 314 312 312 311 310 309 309 311 313 313 312 311 312 312 312 313 314 315 315 314 315 315 314 314 314 314 314 314 311 308 304 299 296 292 290 288 288 287 287 287 287 286 286 285 284 282 280 278 277 276 275 274 273 273 273 273
310 309 307 307 306 306 307 307 307 307 308 309 310 309 309 310 311 312 312 312 313 314 314 314 314 314 313 313 314 315 316 314 312 310 309 307 308 311 314 313 311 310 310 311 311 311 312 312 311 310 309 308 308 309 310 311 312 313 312 311 309 306 303 300 297 295 293 292 290 288 287 287 287 286 285 283 281 280 279 277 276 274 273 272 272 272
306 306 305 304 304 304 304 305 306 307 309 309 308 308 307 309 310 311 311 311 312 312 312 311 310 310 310 310 311 313 314 313 311 309 308 306 308 311 314 313 310 308 308 308 309 309 309 308 307 307 306 306 306 307 308 309 310 311 311 311 310 308 306 304 301 299 297 294 291 289 287 286 286 286 285 284 282 281 280 279 277 276 274 273 272 272
302 302 302 301 302 302 302 303 305 307 308 308 307 308 309 309 310 311 310 310 309 308 308 307 306 305 305 305 307 310 311 311 310 308 307 306 307 310 313 312 309 306 306 306 306 307 307 306 306 306 306 307 307 307 307 307 308 309 310 310 310 309 307 305 302 299 296 293 290 289 287 286 286 285 285 285 283 283 282 281 280 279 277 276 274 273
298 298 298 299 301 301 301 302 303 303 303 304 306 308 308 310 310 310 309 307 306 306 306 304 303 303 303 303 305 308 310 311 310 308 307 305 306 309 312 311 309 306 305 304 305 306 305 305 304 305 305 305 305 304 304 305 305 307 308 308 308 308 306 305 302 299 295 293 291 289 289 288 287 286 285 284 284 284 283 282 282 281 280 278 276 274
296 296 297 297 299 299 299 300 301 301 303 305 307 309 309 310 310 309 307 307 306 305 304 302 301 301 302 301 303 307 312 313 311 308 307 305 305 307 311 310 308 306 304 303 304 305 304 304 303 303 303 302 302 301 302 303 305 306 307 308 308 308 307 305 303 300 297 294 291 289 288 287 286 285 285 284 284 284 284 283 283 283 282 280 278 276
295 295 295 295 296 299 300 301 303 305 308 309 309 309 308 309 308 307 307 307 306 304 303 301 300 300 300 301 304 309 315 314 311 307 306 304 304 306 309 309 307 304 303 304 305 306 305 304 303 303 302 302 302 303 304 305 306 307 308 309 308 308 307 306 304 302 298 295 291 289 287 285 284 284 283 283 282 282 282 281 282 282 281 280 278 276
296 296 298 300 302 304 306 307 309 311 312 311 310 308 307 306 305 305 305 305 304 302 301 300 301 302 304 307 310 314 316 316 311 306 304 302 302 304 307 307 306 304 303 304 306 307 306 305 304 304 304 304 305 306 308 308 309 310 310 309 308 307 307 306 305 303 301 298 295 292 289 287 285 283 282 281 280 280 279 277 276 275 275 276 276 275
303 304 306 308 310 310 311 311 312 313 313 311 309 307 307 306 304 304 304 304 303 302 302 304 305 306 308 310 312 312 311 310 307 304 302 299 299 301 305 306 306 304 303 305 307 307 307 305 305 305 305 305 306 308 310 311 311 311 310 310 309 308 308 307 306 305 303 300 297 295 292 289 286 283 281 279 279 278 277 274 271 269 268 268 269 269
312 312 313 314 314 313 312 312 312 311 311 309 308 307 307 306 305 304 304 304 304 304 305 306 306 305 306 307 306 305 306 305 305 304 302 299 298 300 303 305 305 304 304 306 308 308 306 305 305 305 306 307 309 311 313 314 314 313 312 311 310 309 309 308 307 305 303 300 296 293 290 287 285 283 282 281 280 278 276 272 269 266 264 262 262 262
318 318 317 316 314 313 312 311 311 311 310 310 309 308 307 307 306 305 305 305 305 305 304 303 302 301 303 305 304 303 304 306 306 305 302 300 299 300 303 306 306 306 305 306 306 306 305 304 304 305 307 309 311 313 314 314 313 312 311 310 309 309 308 308 307 306 303 300 297 294 290 288 286 285 284 283 282 280 277 274 270 266 263 260 258 257
322 321 319 317 316 315 314 313 313 313 313 313 312 311 311 310 309 307 306 306 306 305 303 301 301 302 303 305 304 304 305 307 307 306 305 302 299 299 302 306 307 307 306 305 305 304 304 303 303 305 307 310 312 312 311 311 309 308 307 307 307 307 306 307 307 307 307 306 304 302 299 296 293 291 288 286 284 282 279 276 272 269 265 262 260 259
325 323 322 321 320 319 318 318 318 318 317 317 316 316 315 313 310 307 306 307 307 304 302 301 302 302 303 303 303 304 306 308 309 309 308 303 298 297 300 304 306 306 306 305 305 305 304 303 304 306 307 309 309 308 306 305 304 304 305 305 306 307 307 308 309 310 310 310 310 309 307 306 303 299 296 292 288 285 282 279 277 274 271 268 267 265
326 325 324 324 323 322 322 322 321 321 320 320 319 318 317 316 313 310 309 310 308 305 302 301 301 301 301 301 303 305 307 310 313 313 307 301 297 297 300 303 305 305 307 307 307 307 305 305 305 306 306 305 304 303 303 303 304 305 306 307 308 310 311 312 312 312 311 311 311 311 310 309 308 306 304 300 296 292 288 285 281 279 276 274 272 270
327 326 326 325 324 324 324 323 323 322 321 320 320 320 320 319 318 316 314 313 310 305 303 301 301 301 301 303 305 306 306 309 311 309 304 301 299 299 302 303 304 305 307 308 309 309 307 306 306 305 303 303 302 302 303 304 305 307 308 310 312 314 315 315 314 314 313 312 312 311 311 311 310 309 308 306 304 300 296 291 286 282 278 275 274 272
327 327 326 325 325 324 324 323 322 322 321 321 321 321 322 322 321 320 318 317 314 310 307 304 303 302 302 302 302 301 301 305 308 308 306 303 301 300 302 303 303 304 305 306 307 307 306 306 307 306 305 303 302 303 304 306 308 309 311 313 314 315 316 316 315 314 313 313 312 311 311 310 310 309 309 308 307 305 301 297 291 284 279 276 274 272
327 326 326 325 324 324 323 323 322 323 323 323 323 323 323 323 322 321 320 319 317 314 311 309 307 305 304 301 297 295 298 305 311 313 311 306 302 301 303 303 302 303 305 303 301 299 300 301 303 305 305 304 303 304 306 308 310 311 312 312 312 313 314 315 314 313 312 312 312 311 310 310 310 309 308 308 307 306 304 301 295 287 280 276 273 272
326 325 324 324 323 323 323 324 324 325 325 325 325 324 324 323 322 321 320 318 317 316 314 311 309 308 306 303 300 300 303 308 315 317 314 307 303 302 303 303 302 303 304 304 300 296 294 295 299 303 305 305 305 306 307 308 309 310 310 309 309 310 312 312 312 311 311 311 311 311 311 311 310 309 309 308 307 306 305 302 298 291 283 277 273 271
325 324 323 323 323 324 324 325 326 326 326 326 325 324 323 322 321 320 318 317 316 315 314 312 310 309 308 306 304 305 308 313 317 318 315 308 303 301 302 302 302 303 304 304 302 299 296 296 298 301 304 305 305 305 305 306 307 308 308 307 306 307 308 309 309 309 309 310 310 310 310 310 310 309 308 307 306 305 304 302 299 294 286 279 274 271
324 323 323 324 324 325 325 326 326 326 325 324 323 322 321 320 319 318 317 316 315 314 314 313 312 311 309 306 305 305 309 315 318 318 315 310 306 304 303 303 303 303 304 302 301 300 299 298 299 300 302 303 303 303 303 304 306 307 306 305 303 303 304 305 305 306 307 307 308 308 309 309 308 308 307 306 305 304 302 301 298 294 289 282 276 271
324 324 325 326 326 327 326 326 325 325 324 323 322 321 320 319 318 317 316 315 315 314 314 314 314 314 312 310 307 307 310 315 318 320 318 314 311 307 304 303 304 304 302 302 301 300 299 299 299 300 300 300 301 303 304 305 305 305 304 302 302 301 301 302 302 302 303 304 305 306 307 307 306 306 305 304 304 302 301 298 296 293 290 285 280 274
328 328 328 328 328 328 327 326 325 325 324 323 322 321 320 319 317 316 316 315 315 315 315 316 316 316 316 315 312 311 313 317 320 322 321 319 315 310 305 305 306 306 302 301 301 300 299 299 300 300 299 298 298 300 303 305 305 303 301 300 301 301 300 301 301 301 301 302 303 304 305 305 304 304 303 303 302 300 298 296 294 292 289 286 282 278
333 331 329 328 328 328 328 327 326 325 324 324 323 322 321 320 318 317 316 316 316 317 317 317 317 317 317 317 316 316 317 318 320 322 323 322 318 314 310 308 309 309 306 303 301 300 298 297 297 298 299 298 297 298 300 302 302 302 302 301 301 301 300 302 303 303 302 301 302 302 303 302 301 300 300 299 298 297 295 293 292 290 288 286 283 280
335 332 331 329 328 328 327 326 325 325 325 325 325 324 323 322 320 319 318 318 319 319 319 319 318 318 318 318 317 318 318 319 321 322 323 323 321 318 315 311 310 310 310 307 303 300 297 294 293 293 295 296 298 299 300 299 299 300 302 304 304 303 302 303 303 302 300 298 298 298 299 300 300 298 297 297 296 294 292 291 290 289 287 285 284 282
336 334 332 330 328 326 326 325 326 326 326 327 327 326 326 325 324 323 322 322 322 322 322 322 321 320 319 318 318 318 319 320 321 323 323 323 322 320 317 313 311 311 311 308 304 300 296 294 293 293 293 294 296 297 299 299 299 300 301 302 301 301 302 301 300 299 298 297 296 297 298 299 300 298 297 296 294 292 291 290 289 288 287 284 282 281
337 335 333 330 328 328 327 327 327 328 329 330 331 331 331 330 329 329 328 328 327 326 325 325 323 322 320 318 318 318 319 320 322 323 323 323 323 321 318 315 313 312 311 307 304 301 298 296 295 295 295 295 296 296 297 297 298 299 299 297 297 298 301 301 300 299 299 298 298 298 297 297 296 296 295 294 293 292 291 289 287 286 285 282 280 278
338 336 333 332 331 330 329 329 329 330 332 334 335 335 334 334 333 333 333 332 332 331 330 328 326 323 322 320 320 321 321 322 322 323 323 322 322 320 318 316 314 312 310 307 304 303 301 299 297 296 296 297 296 295 296 297 298 298 296 295 297 300 302 302 301 300 299 296 295 294 292 292 292 293 292 292 291 291 291 288 286 284 282 280 278 276
338 336 335 334 334 332 331 331 331 332 334 336 337 336 335 334 334 333 332 330 330 331 331 329 327 324 322 322 323 324 324 324 323 323 322 321 320 319 317 315 314 312 309 305 302 302 302 300 298 296 297 298 296 294 293 295 297 297 295 295 296 297 297 299 301 300 296 294 293 292 292 292 292 292 292 291 290 290 290 288 286 284 282 280 278 276
338 338 337 336 334 332 331 331 332 333 334 334 334 335 335 334 333 331 330 328 328 328 329 328 326 324 321 320 321 323 325 324 324 324 323 321 320 318 316 314 313 311 308 303 300 300 302 301 300 300 300 299 296 294 293 294 295 296 296 297 296 294 291 295 299 301 298 297 295 294 294 294 293 293 293 292 292 291 291 290 288 287 285 283 281 278
340 339 337 335 333 331 330 330 332 333 333 332 333 333 334 333 331 329 327 325 325 325 325 324 323 320 317 317 319 321 323 325 326 326 326 325 323 320 316 314 312 310 307 304 302 301 300 299 301 304 304 301 296 293 292 293 295 296 298 299 298 296 294 297 299 299 297 298 298 297 297 297 297 296 294 294 293 293 292 291 290 289 288 286 283 281
340 337 334 332 331 330 329 331 333 333 332 332 332 332 332 331 330 327 325 323 321 320 320 320 318 315 313 315 317 320 321 323 326 327 327 326 324 322 319 316 313 311 308 306 305 304 302 301 302 304 304 301 298 296 294 294 294 295 298 299 299 297 296 297 298 298 297 297 298 299 300 299 297 294 292 292 292 293 292 290 289 288 288 286 283 281
337 334 332 331 331 332 332 333 334 333 331 332 332 332 331 330 328 325 323 320 317 316 316 316 314 313 312 313 315 316 317 318 321 324 326 326 326 324 322 319 317 314 311 309 308 306 305 305 305 303 300 297 296 296 298 297 296 295 296 298 298 297 296 297 298 299 299 297 296 298 299 298 295 291 291 291 291 291 290 289 288 287 286 284 282 280
335 333 332 332 332 332 333 334 333 332 330 330 330 330 330 328 325 321 318 316 315 314 312 312 311 311 311 312 313 313 314 314 316 319 322 324 324 324 322 320 319 317 315 313 310 308 307 306 305 302 299 295 293 294 298 300 299 297 297 297 297 296 295 297 299 301 299 297 297 298 298 295 292 290 291 291 290 288 288 288 288 287 285 283 282 280
336 334 333 333 332 332 332 333 332 331 329 329 328 327 327 326 322 318 316 315 315 313 311 311 310 309 309 310 311 313 313 313 314 315 317 319 320 320 320 319 318 317 316 314 312 310 308 307 305 302 299 295 293 294 297 300 301 299 298 296 295 294 295 297 299 300 299 298 298 299 298 295 293 291 289 287 286 286 287 287 286 285 284 283 281 279
337 335 334 332 331 330 331 332 331 329 328 327 326 324 323 322 321 319 317 316 315 313 311 310 309 308 307 309 311 312 312 312 312 313 314 315 315 315 315 315 315 315 314 314 312 310 307 305 304 303 300 296 293 293 295 298 300 300 298 295 294 293 293 295 297 299 298 298 298 298 297 295 294 291 286 283 283 284 285 285 284 284 284 283 281 280
337 336 334 333 331 330 330 330 329 328 327 326 325 323 322 321 321 320 319 317 315 313 312 311 309 308 307 308 309 311 311 311 310 310 311 312 311 310 310 311 312 312 311 311 309 308 305 303 302 302 300 298 295 292 291 293 295 295 294 294 293 292 291 291 293 295 296 295 295 294 293 291 289 286 283 280 279 280 281 282 282 282 283 282 280 279